Addition of TLEs for NO-84, NO-83 and AO-85 to the orb18340.2l.amsat TLE Distribution
Sorry. I got in a big hurry this week and skipped one of my steps in creating the AMSAT-NA Weekly TLE distribution.
I accidently left out the following three satellites:
NO-84 1 40654U 15025D 18339.49856773 .00007158 00000-0 11154-3 0 04772 2 40654 054.9912 340.7717 0148399 184.7624 175.1984 15.43615131082270 NO-83 1 40655U 15025E 18339.30540334 .00023709 00000-0 19942-3 0 05624 2 40655 054.9727 262.3556 0084044 230.8901 128.4656 15.65212602083001 AO-85 1 40967U 15058D 18339.30705202 .00000144 00000-0 32656-4 0 05292 2 40967 064.7790 031.7047 0213922 262.2515 095.4400 14.75830517078902
Please use a text editor like Notepad to insert these three TLEs to avoid adding any hidden formating information to your file. Your tracking program may not like hidden formating data.
You can just put them at the end, but I usually put them in numerical order by the NORAD CAT ID.
Again sorry for the confusion, I'll do better next week.
participants (1)
-
Ray Hoad